When you browse on this site, cookies collect data to enhance your experience and personalize the content and advertising you see.
Visit our Privacy Policy to learn more. By continuing to use the site, you agree to this use of cookies and data.
  • In United Kingdom
  • List of Countries
  • For 7 days
  • Water Temperature
  • Satellite Maps
  • Weather Map
  • Weather Widgets
  • user-avatar
    Login

    Hourly Weather Qorao‘zak

    Today, 16 June, Sunday

    Time Temperature Precipitation Wind Pressure Humidity
    00:00 +24°C° 0 mm 2 mps 753 mmHg 23%
    01:00 +23°C° 0 mm 2 mps 753 mmHg 25%
    02:00 +23°C° 0 mm 2 mps 753 mmHg 27%
    03:00 +22°C° 0 mm 1 mps 753 mmHg 29%
    04:00 +21°C° 0 mm 2 mps 753 mmHg 34%
    05:00 +23°C° 0 mm 2 mps 754 mmHg 31%
    06:00 +24°C° 0 mm 2 mps 754 mmHg 29%
    07:00 +25°C° 0 mm 2 mps 754 mmHg 27%
    08:00 +27°C° 0 mm 1 mps 754 mmHg 24%
    09:00 +28°C° 0 mm 1 mps 754 mmHg 22%
    10:00 +27°C° 0 mm 0 mps 754 mmHg 19%
    11:00 +28°C° 0 mm 0 mps 754 mmHg 18%
    12:00 +29°C° 0 mm 0 mps 754 mmHg 18%
    13:00 +30°C° 0 mm 0 mps 754 mmHg 17%
    14:00 +32°C° 0 mm 1 mps 753 mmHg 17%
    15:00 +32°C° 0 mm 1 mps 753 mmHg 16%
    16:00 +33°C° 0 mm 1 mps 753 mmHg 15%
    17:00 +33°C° 0 mm 1 mps 753 mmHg 16%
    18:00 +34°C° 0 mm 2 mps 753 mmHg 16%
    19:00 +34°C° 0 mm 2 mps 752 mmHg 17%
    20:00 +32°C° 0 mm 2 mps 752 mmHg 17%
    21:00 +31°C° 0 mm 2 mps 752 mmHg 18%
    22:00 +30°C° 0 mm 3 mps 752 mmHg 19%
    23:00 +29°C° 0 mm 3 mps 752 mmHg 20%

    Tomorrow, 17 June, Monday

    Time Temperature Precipitation Wind Pressure Humidity
    00:00 +28°C° 0 mm 4 mps 752 mmHg 20%
    01:00 +28°C° 0 mm 4 mps 751 mmHg 21%
    02:00 +27°C° 0 mm 4 mps 751 mmHg 21%
    03:00 +27°C° 0 mm 4 mps 751 mmHg 22%
    04:00 +26°C° 0 mm 4 mps 751 mmHg 22%
    05:00 +27°C° 0 mm 5 mps 751 mmHg 21%
    06:00 +29°C° 0 mm 6 mps 751 mmHg 20%
    07:00 +30°C° 0 mm 6 mps 752 mmHg 19%
    08:00 +32°C° 0 mm 6 mps 751 mmHg 17%
    09:00 +34°C° 0 mm 6 mps 751 mmHg 15%
    10:00 +36°C° 0 mm 5 mps 751 mmHg 13%
    11:00 +37°C° 0 mm 4 mps 751 mmHg 13%
    12:00 +37°C° 0 mm 3 mps 751 mmHg 12%
    13:00 +38°C° 0 mm 2 mps 751 mmHg 11%
    14:00 +38°C° 0 mm 3 mps 750 mmHg 11%
    15:00 +38°C° 0 mm 4 mps 750 mmHg 11%
    16:00 +38°C° 0 mm 4 mps 750 mmHg 11%
    17:00 +37°C° 0 mm 5 mps 749 mmHg 12%
    18:00 +36°C° 0 mm 6 mps 749 mmHg 14%
    19:00 +35°C° 0 mm 6 mps 749 mmHg 15%
    20:00 +34°C° 0 mm 6 mps 749 mmHg 19%
    21:00 +33°C° 0 mm 6 mps 749 mmHg 22%
    22:00 +30°C° 0 mm 6 mps 750 mmHg 26%
    23:00 +30°C° 0 mm 5 mps 750 mmHg 28%

    Day after tomorrow, 18 June, Tuesday

    Time Temperature Precipitation Wind Pressure Humidity
    00:00 +29°C° 0 mm 5 mps 750 mmHg 29%
    01:00 +29°C° 0 mm 4 mps 749 mmHg 31%
    02:00 +28°C° 0 mm 5 mps 750 mmHg 31%
    03:00 +28°C° 0 mm 5 mps 750 mmHg 31%
    04:00 +28°C° 0 mm 5 mps 750 mmHg 32%
    05:00 +29°C° 0 mm 5 mps 750 mmHg 30%
    06:00 +30°C° 0 mm 4 mps 750 mmHg 28%
    07:00 +32°C° 0 mm 4 mps 750 mmHg 26%
    08:00 +33°C° 0 mm 3 mps 750 mmHg 24%
    09:00 +34°C° 0 mm 3 mps 751 mmHg 21%
    10:00 +36°C° 0 mm 2 mps 751 mmHg 18%
    11:00 +37°C° 0 mm 2 mps 751 mmHg 17%
    12:00 +38°C° 0 mm 3 mps 750 mmHg 16%
    13:00 +38°C° 0 mm 4 mps 750 mmHg 15%
    14:00 +39°C° 0 mm 5 mps 750 mmHg 16%
    15:00 +39°C° 0 mm 6 mps 750 mmHg 17%
    16:00 +38°C° 0 mm 7 mps 749 mmHg 18%
    17:00 +36°C° 0 mm 7 mps 750 mmHg 21%
    18:00 +34°C° 0 mm 8 mps 750 mmHg 24%
    19:00 +32°C° 0 mm 9 mps 750 mmHg 27%
    20:00 +31°C° 0 mm 8 mps 750 mmHg 27%
    21:00 +29°C° 0 mm 8 mps 750 mmHg 28%
    22:00 +28°C° 0 mm 7 mps 750 mmHg 28%
    23:00 +27°C° 0 mm 6 mps 750 mmHg 29%

    19 June, Wednesday

    Time Temperature Precipitation Wind Pressure Humidity
    00:00 +26°C° 0 mm 5 mps 750 mmHg 30%
    01:00 +26°C° 0 mm 5 mps 750 mmHg 31%
    02:00 +25°C° 0 mm 4 mps 750 mmHg 32%
    03:00 +25°C° 0 mm 4 mps 750 mmHg 33%
    04:00 +24°C° 0 mm 3 mps 750 mmHg 34%
    05:00 +26°C° 0 mm 4 mps 750 mmHg 30%
    06:00 +27°C° 0 mm 5 mps 750 mmHg 25%
    07:00 +28°C° 0 mm 5 mps 750 mmHg 21%
    08:00 +30°C° 0 mm 5 mps 750 mmHg 19%
    09:00 +33°C° 0 mm 5 mps 750 mmHg 17%
    10:00 +35°C° 0 mm 5 mps 750 mmHg 15%
    11:00 +35°C° 0 mm 5 mps 750 mmHg 14%
    12:00 +36°C° 0 mm 5 mps 750 mmHg 13%
    13:00 +37°C° 0 mm 4 mps 750 mmHg 12%
    14:00 +39°C° 0 mm 5 mps 750 mmHg 12%
    15:00 +39°C° 0 mm 6 mps 750 mmHg 12%
    16:00 +39°C° 0 mm 7 mps 750 mmHg 12%
    17:00 +37°C° 0 mm 8 mps 750 mmHg 15%
    18:00 +34°C° 0 mm 9 mps 750 mmHg 19%
    19:00 +32°C° 0 mm 11 mps 750 mmHg 22%
    20:00 +31°C° 0 mm 10 mps 750 mmHg 23%
    21:00 +29°C° 0 mm 9 mps 750 mmHg 25%
    22:00 +28°C° 0 mm 8 mps 750 mmHg 27%
    23:00 +27°C° 0 mm 7 mps 750 mmHg 29%

    20 June, Thursday

    Time Temperature Precipitation Wind Pressure Humidity
    00:00 +27°C° 0 mm 6 mps 750 mmHg 32%
    01:00 +26°C° 0 mm 6 mps 750 mmHg 34%
    02:00 +26°C° 0 mm 5 mps 750 mmHg 32%
    03:00 +26°C° 0 mm 5 mps 750 mmHg 30%
    04:00 +26°C° 0 mm 5 mps 750 mmHg 28%
    05:00 +27°C° 0 mm 5 mps 750 mmHg 24%
    06:00 +29°C° 0 mm 6 mps 750 mmHg 21%
    07:00 +32°C° 0 mm 6 mps 750 mmHg 17%
    08:00 +34°C° 0 mm 6 mps 750 mmHg 15%
    09:00 +35°C° 0 mm 6 mps 750 mmHg 13%
    10:00 +38°C° 0 mm 6 mps 750 mmHg 11%
    11:00 +39°C° 0 mm 6 mps 750 mmHg 11%
    12:00 +39°C° 0 mm 6 mps 750 mmHg 10%
    13:00 +40°C° 0 mm 6 mps 750 mmHg 10%
    14:00 +40°C° 0 mm 6 mps 750 mmHg 10%
    15:00 +40°C° 0 mm 7 mps 749 mmHg 10%
    16:00 +40°C° 0 mm 7 mps 749 mmHg 10%
    17:00 +39°C° 0 mm 8 mps 749 mmHg 12%
    18:00 +37°C° 0 mm 8 mps 749 mmHg 13%
    19:00 +35°C° 0 mm 9 mps 749 mmHg 15%
    20:00 +34°C° 0 mm 8 mps 750 mmHg 17%
    21:00 +33°C° 0 mm 8 mps 750 mmHg 18%
    22:00 +30°C° 0 mm 7 mps 750 mmHg 20%
    23:00 +30°C° 0 mm 7 mps 750 mmHg 21%

    21 June, Friday

    Time Temperature Precipitation Wind Pressure Humidity
    00:00 +29°C° 0 mm 6 mps 750 mmHg 21%
    01:00 +29°C° 0 mm 5 mps 750 mmHg 21%
    02:00 +28°C° 0 mm 5 mps 750 mmHg 22%
    03:00 +27°C° 0 mm 5 mps 750 mmHg 23%
    04:00 +27°C° 0 mm 4 mps 751 mmHg 23%
    05:00 +28°C° 0 mm 5 mps 751 mmHg 22%
    06:00 +29°C° 0 mm 5 mps 751 mmHg 20%
    07:00 +30°C° 0 mm 6 mps 751 mmHg 19%
    08:00 +32°C° 0 mm 6 mps 751 mmHg 18%
    09:00 +34°C° 0 mm 6 mps 752 mmHg 17%
    10:00 +35°C° 0 mm 5 mps 752 mmHg 15%
    11:00 +36°C° 0 mm 6 mps 752 mmHg 15%
    12:00 +38°C° 0 mm 6 mps 751 mmHg 14%
    13:00 +38°C° 0 mm 6 mps 751 mmHg 13%
    14:00 +38°C° 0 mm 7 mps 751 mmHg 14%
    15:00 +38°C° 0 mm 8 mps 751 mmHg 15%
    16:00 +38°C° 0 mm 9 mps 751 mmHg 16%
    17:00 +35°C° 0 mm 8 mps 751 mmHg 18%
    18:00 +34°C° 0 mm 8 mps 751 mmHg 20%
    19:00 +33°C° 0 mm 7 mps 751 mmHg 22%
    20:00 +32°C° 0 mm 7 mps 752 mmHg 24%
    21:00 +30°C° 0 mm 6 mps 752 mmHg 27%
    22:00 +29°C° 0 mm 5 mps 752 mmHg 29%
    23:00 +28°C° 0 mm 5 mps 752 mmHg 30%
    Show more